#timestamp,LO_Frequency,Hit,StdDev 
1698328815.1,286047000.8,N
1698328835.9,286046998.3,N
1698328855.7,286046998.1,N
1698328875.5,286047001.0,N
1698328895.4,286046998.4,N
1698328915.2,286046999.4,N
1698328935.1,286046999.6,N
1698328936.0,286046999.6,N
1698328955.8,286046998.3,N
1698328975.6,286046998.4,N
1698328995.5,286046998.2,N
1698329015.3,286046999.9,N
1698329035.2,286047000.4,N
1698329055.9,286047002.8,N
1698329075.7,286046999.7,N
1698329095.6,286047000.1,N
1698329115.4,286047001.1,N
1698329135.2,286046998.6,N
1698329155.1,286046998.5,N
1698329156.0,286046998.5,N
1698329175.8,286046998.5,N
1698329195.7,286046998.2,N
1698329215.5,286046996.9,N
1698329235.3,286046999.2,N
1698329255.2,286046997.1,N
1698329275.0,286046999.6,N
1698329275.9,286046999.6,N
1698329295.8,286046999.3,N
1698329315.6,286046996.6,N
1698329335.4,286046998.8,N
1698329355.3,286046998.3,N
1698329375.1,286046996.5,N
1698329395.9,286046997.8,N
1698329415.7,286046997.2,N
1698329435.5,286046999.5,N
1698329455.4,286046999.5,N
1698329475.2,286046999.5,N
1698329495.0,286046997.2,N
1698329495.9,286046997.2,N
1698329515.8,286046999.2,N
1698329535.6,286046998.8,N
1698329555.5,286046999.3,N
1698329575.3,286046999.1,N
1698329595.1,286046997.4,N
1698329615.9,286046997.4,N
1698329635.7,286046995.4,Y
1698329655.6,286046997.7,P
1698329675.4,286046997.1,P
1698329695.2,286046996.5,P
1698329715.1,286046997.1,Y
1698329716.0,286046997.1,P
1698329735.8,286047000.6,P
1698329755.6,286047001.0,N
1698329775.5,286047000.9,N
1698329795.3,286046999.8,N
1698329815.2,286047000.2,N
1698329835.9,286046999.8,N
1698329855.7,286047000.2,N
1698329875.6,286047000.4,N
1698329895.4,286046999.9,N
1698329915.2,286047002.8,N
1698329935.1,286046999.7,N
1698329936.0,286046999.7,N
1698329955.8,286046998.1,N
1698329975.7,286046999.8,N
1698329995.5,286046999.9,N
1698330015.3,286047002.7,N
1698330035.2,286046999.9,N
1698330055.0,286047002.3,N
1698330055.9,286047002.3,N
1698330075.8,286047000.1,N
1698330095.6,286046999.8,N
1698330115.4,286046999.7,N
1698330135.3,286047001.5,N
1698330155.1,286047002.6,N
1698330175.8,286047001.6,N
1698330195.7,286047001.8,N
1698330215.5,286047004.2,N
1698330235.3,286047001.7,N
1698330255.2,286047002.1,N
1698330275.0,286047004.3,N
1698330275.9,286047004.3,N
1698330295.8,286047004.4,N
1698330315.6,286047001.3,N
1698330335.4,286047004.3,N
1698330355.3,286047001.8,N
1698330375.1,286047001.3,N
1698330395.9,286047003.3,N
1698330415.7,286047004.8,N
1698330435.5,286047005.3,N
1698330455.4,286047007.6,Y
1698330475.2,286047004.2,P
1698330495.0,286047003.6,P
1698330495.9,286047003.6,P
1698330515.8,286047003.3,Y
1698330535.6,286047001.4,P
1698330555.5,286047001.5,N
1698330575.3,286047001.8,N
1698330595.1,286047001.3,N
1698330615.9,286047003.2,Y
1698330635.7,286047002.5,P
1698330655.5,286047002.8,P
1698330675.4,286047002.3,P
1698330695.2,286047001.0,N
1698330715.1,286046998.6,N
1698330716.0,286046998.6,N
1698330735.8,286047000.3,N
1698330755.6,286047000.0,N
1698330775.5,286047000.1,N
1698330795.3,286047002.5,N
1698330815.1,286047000.2,N
1698330835.9,286047002.8,N
1698330855.7,286047000.3,N
1698330875.6,286047000.0,N
1698330895.4,286047002.0,N
1698330915.2,286047002.0,N
1698330935.1,286047001.8,N
1698330936.0,286047001.8,N
1698330955.8,286047001.5,N
1698330975.7,286047001.8,N
1698330995.5,286047004.3,Y
1698331015.3,286047001.8,P
1698331035.2,286047002.2,P
1698331055.9,286047000.2,N
1698331075.7,286046999.8,N
1698331095.6,286047000.3,N
1698331115.4,286047002.7,Y
1698331135.3,286047001.1,P
1698331155.1,286047000.3,N
1698331156.0,286047000.3,N
1698331175.8,286047002.3,Y
1698331195.7,286047000.5,P
1698331215.5,286047002.8,P
1698331235.3,286047000.0,N
1698331255.2,286047000.3,N
1698331275.0,286047000.1,N
1698331275.9,286047000.1,N
1698331295.8,286047002.6,N
1698331315.6,286047002.5,N
1698331335.4,286047001.5,N
1698331355.3,286047001.7,N
1698331375.1,286047002.1,N
1698331395.9,286047002.3,N
1698331415.7,286047002.2,N
1698331435.5,286047004.0,Y
1698331455.4,286047002.3,P
1698331475.2,286047002.6,P
1698331495.5,286047000.0,N
1698331515.4,286047002.5,N
1698331535.2,286047000.4,N
1698331555.1,286047002.7,N
1698331556.0,286047002.7,N
1698331575.8,286046999.8,N
1698331595.6,286047002.2,N
1698331615.5,286047002.4,N
1698331635.3,286047002.1,N
1698331655.2,286047001.6,N
1698331675.9,286047002.8,N
1698331695.7,286047002.4,N
1698331715.6,286047002.7,N
1698331735.4,286047001.8,N
1698331755.3,286047001.9,N
1698331775.1,286047002.0,N
1698331776.0,286047002.0,N
1698331795.8,286047004.1,Y
1698331815.7,286047002.8,P
1698331835.5,286046999.9,N
1698331855.3,286046998.3,N
1698331875.2,286046998.6,N
1698331895.0,286046998.6,N
1698331895.9,286046998.6,N
1698331915.8,286047000.9,N
1698331935.6,286046998.3,N
1698331955.4,286046998.2,N
1698331975.3,286046998.4,N
1698331995.1,286047001.2,N
1698332015.8,286047000.7,N
1698332035.7,286047000.2,N
1698332055.5,286047001.0,N
1698332075.4,286047000.1,N
1698332095.2,286047000.3,N
1698332115.0,286047000.6,N
1698332115.9,286047000.6,N
1698332135.8,286047001.2,N
1698332155.6,286046998.6,N
1698332175.5,286046998.1,N
1698332195.3,286047000.2,N
1698332215.1,286047000.0,N
1698332235.9,286047001.0,N
1698332255.7,286047001.0,N
1698332275.6,286047001.1,N
1698332295.4,286046998.3,N
1698332315.2,286046998.7,N
1698332335.1,286047000.7,N
1698332336.0,286047000.7,N
1698332355.8,286047001.1,N
1698332375.7,286047000.7,N
1698332395.5,286047000.4,N
